TimeCST,TemperatureF,Dew PointF,Humidity,Sea Level PressureIn,VisibilityMPH,Wind Direction,Wind SpeedMPH,Gust SpeedMPH,PrecipitationIn,Events,Conditions,WindDirDegrees,DateUTC
12:53 AM,10.0,6.1,84,30.08,10.0,SE,9.2,-,N/A,,Overcast,130,2012-12-27 06:53:00
1:53 AM,10.9,7.0,84,30.06,10.0,SE,10.4,-,N/A,,Overcast,130,2012-12-27 07:53:00
2:53 AM,10.9,7.0,84,30.04,10.0,SE,10.4,20.7,N/A,,Overcast,130,2012-12-27 08:53:00
3:53 AM,10.9,7.0,84,30.01,10.0,ESE,11.5,23.0,N/A,,Overcast,120,2012-12-27 09:53:00
4:53 AM,10.9,8.1,88,29.99,10.0,SE,10.4,21.9,N/A,,Overcast,130,2012-12-27 10:53:00
5:53 AM,12.0,9.0,88,29.99,10.0,ESE,11.5,-,N/A,,Overcast,120,2012-12-27 11:53:00
6:26 AM,12.2,8.6,85,29.86,9.0,ESE,6.9,-,N/A,,Overcast,120,2012-12-27 12:26:00
6:53 AM,12.0,9.0,88,30.00,9.0,East,6.9,-,N/A,,Overcast,100,2012-12-27 12:53:00
7:23 AM,12.2,10.4,92,29.86,2.5,ESE,8.1,-,0.00,Snow,Light Snow,110,2012-12-27 13:23:00
7:46 AM,12.2,10.4,92,29.86,1.8,ESE,6.9,-,0.00,Snow,Light Snow,110,2012-12-27 13:46:00
7:53 AM,12.9,10.0,88,30.00,1.8,East,6.9,-,0.00,Snow,Light Snow,100,2012-12-27 13:53:00
8:05 AM,12.2,10.4,92,29.86,2.0,ESE,8.1,-,0.00,Snow,Light Snow,110,2012-12-27 14:05:00
8:35 AM,12.2,10.4,92,29.86,1.5,ESE,8.1,-,0.00,Snow,Light Snow,110,2012-12-27 14:35:00
8:42 AM,12.2,10.4,92,29.86,0.8,ESE,6.9,-,0.00,Snow,Light Snow,110,2012-12-27 14:42:00
8:53 AM,12.9,10.9,92,30.00,0.8,ESE,8.1,-,0.00,Snow,Light Snow,110,2012-12-27 14:53:00
9:14 AM,12.2,10.4,92,29.86,0.8,ESE,8.1,-,0.00,Snow,Light Snow,110,2012-12-27 15:14:00
9:43 AM,14.0,10.4,86,29.87,1.0,ESE,9.2,-,N/A,Snow,Light Snow,120,2012-12-27 15:43:00
9:53 AM,14.0,10.9,88,30.01,0.8,ESE,11.5,-,0.00,Snow,Light Snow,120,2012-12-27 15:53:00
10:05 AM,14.0,10.4,86,29.88,1.0,ESE,9.2,-,0.00,Snow,Light Snow,120,2012-12-27 16:05:00
10:40 AM,15.8,10.4,79,29.88,1.0,ESE,9.2,-,0.00,Snow,Light Snow,120,2012-12-27 16:40:00
10:53 AM,15.1,10.9,84,30.02,1.0,ESE,10.4,-,0.00,Snow,Light Snow,120,2012-12-27 16:53:00
11:15 AM,15.8,12.2,86,29.88,1.2,ESE,5.8,-,0.00,Snow,Light Snow,110,2012-12-27 17:15:00
11:53 AM,15.1,12.0,88,30.00,1.5,ESE,8.1,-,0.00,Snow,Light Snow,120,2012-12-27 17:53:00
12:42 PM,15.8,12.2,86,29.85,2.0,SE,6.9,-,0.00,Snow,Light Snow,130,2012-12-27 18:42:00
12:53 PM,16.0,12.9,88,29.98,2.5,SE,6.9,-,0.00,Snow,Light Snow,140,2012-12-27 18:53:00
1:06 PM,17.6,12.2,79,29.84,3.0,SE,6.9,-,0.00,Snow,Light Snow,140,2012-12-27 19:06:00
1:36 PM,17.6,12.2,79,29.83,4.0,SE,5.8,-,0.00,Snow,Light Snow,130,2012-12-27 19:36:00
1:43 PM,17.6,12.2,79,29.83,4.0,SE,4.6,-,0.00,Snow,Light Snow,140,2012-12-27 19:43:00
1:53 PM,17.1,12.9,84,29.96,3.0,SE,5.8,-,0.00,Snow,Light Snow,130,2012-12-27 19:53:00
2:01 PM,17.6,12.2,79,29.83,3.0,SE,4.6,-,0.00,Snow,Light Snow,140,2012-12-27 20:01:00
2:17 PM,17.6,12.2,79,29.83,2.5,SE,3.5,-,0.00,Snow,Light Snow,140,2012-12-27 20:17:00
2:50 PM,17.6,14.0,86,29.83,1.5,ESE,3.5,-,0.00,Snow,Light Snow,120,2012-12-27 20:50:00
2:53 PM,17.1,14.0,88,29.96,1.5,SE,3.5,-,0.00,Snow,Light Snow,140,2012-12-27 20:53:00
3:03 PM,17.6,14.0,86,29.83,1.5,ESE,3.5,-,0.00,Snow,Light Snow,120,2012-12-27 21:03:00
3:15 PM,17.6,14.0,86,29.83,2.0,ESE,3.5,-,0.00,Snow,Light Snow,110,2012-12-27 21:15:00
3:36 PM,17.6,14.0,86,29.84,2.0,Calm,Calm,-,0.00,Snow,Light Snow,0,2012-12-27 21:36:00
3:53 PM,18.0,14.0,84,29.97,2.0,Calm,Calm,-,0.00,Snow,Light Snow,0,2012-12-27 21:53:00
4:27 PM,17.6,14.0,86,29.85,3.0,Calm,Calm,-,0.00,Snow,Light Snow,0,2012-12-27 22:27:00
4:53 PM,17.1,14.0,88,29.99,4.0,Calm,Calm,-,0.00,,Overcast,0,2012-12-27 22:53:00
5:53 PM,15.8,12.2,86,29.88,5.0,Calm,Calm,-,N/A,,Overcast,0,2012-12-27 23:53:00
6:53 PM,15.1,12.0,88,30.03,6.0,NNW,4.6,-,N/A,,Overcast,330,2012-12-28 00:53:00
7:53 PM,10.0,7.0,87,30.05,8.0,NNW,4.6,-,N/A,,Overcast,330,2012-12-28 01:53:00
8:53 PM,10.4,8.6,92,29.91,7.0,Calm,Calm,-,N/A,,Overcast,0,2012-12-28 02:53:00
9:53 PM,7.0,5.0,92,30.06,8.0,NW,9.2,-,N/A,,Clear,320,2012-12-28 03:53:00
10:53 PM,7.0,3.9,87,30.07,8.0,NW,12.7,-,N/A,,Partly Cloudy,320,2012-12-28 04:53:00
11:53 PM,5.0,1.9,87,30.08,7.0,NW,9.2,-,N/A,,Clear,320,2012-12-28 05:53:00